Flag for Canada Weather past 2 weeks in Brandon, Manitoba, Canada

Now
43 °F

Clear.


Feels Like: 37 °F
Forecast: 39 / 66 °F
Wind: 10 mph from Southeast

Location: Brandon

Current Time: Oct 21, 2014 at 6:26:38 AM

Latest Report: Oct 21, 2014 at 6:00 AM


Visibility: 15 mi

Pressure: 29.93 "Hg

Humidity: 87%

Dew point: 39 °F

Location of BrandonLocation

Historic Weather in Brandon — Graph

°F

Brandon temperature yesterday

Maximum temperature yesterday: 64 °F (at 4:00 PM)
Minimum temperature yesterday: 28 °F (at 6:46 AM)
Average temperature yesterday: 42 °F

Past Weeks' High & Low Weather Summary

 TemperatureHumidityPressure
High68 °F (Oct 14, 4:00 PM)100% (Oct 10, 6:00 AM)30.35 "Hg (Oct 10, 6:00 AM)
Low21 °F (Oct 9, 4:00 AM)28% (Oct 14, 4:00 PM)29.41 "Hg (Oct 6, 8:00 AM)
Average44 °F70%29.92 "Hg
* Reported Oct 6 5:00 AM — Oct 21 5:00 AM, Brandon, Weather by CustomWeather, © 2014

Note: Actual official high and low records may vary slightly from our data, if they occured in-between our weather recording intervals... More about our weather records

Advertising

Brandon weather history for previous 24 hours

 ConditionsComfort  
Time TempWeatherWind HumidityBarometerVisibility
5:00 AM
Oct 21
43 °FClear.10 mph87%29.93 "Hg15 mi
4:00 AM43 °FClear.9 mph87%29.94 "Hg15 mi
3:00 AM36 °FClear.8 mph100%29.96 "Hg15 mi
2:00 AM45 °FClear.12 mph87%29.95 "Hg15 mi
1:00 AM39 °FClear.9 mph93%29.97 "Hg15 mi
12:00 AM39 °FClear.8 mph93%29.98 "Hg15 mi
11:00 PM
Oct 20
39 °FClear.7 mph93%29.99 "Hg15 mi
10:00 PM39 °FClear.9 mph93%29.99 "Hg15 mi
9:00 PM41 °FClear.9 mph93%30.00 "Hg15 mi
8:00 PM45 °FClear.12 mph87%30.01 "Hg15 mi
7:00 PM48 °FSunny.15 mph82%30.00 "Hg15 mi
6:00 PM55 °FSunny.15 mph67%29.99 "Hg15 mi
5:00 PM64 °FPassing clouds.12 mph49%29.98 "Hg15 mi
4:00 PM64 °FPassing clouds.13 mph49%30.00 "Hg15 mi
3:00 PM63 °FPassing clouds.10 mph52%30.01 "Hg15 mi
2:00 PM59 °FPassing clouds.10 mph59%30.03 "Hg15 mi
1:00 PM55 °FPassing clouds.8 mph63%30.06 "Hg15 mi
12:00 PM48 °FPassing clouds.9 mph82%30.08 "Hg15 mi
11:04 AM43 °FFog.8 mph93%30.09 "Hg2 mi
10:00 AM37 °FFog.10 mph100%30.11 "Hg0 mi
9:00 AM34 °FFog.7 mph100%30.11 "Hg0 mi
8:00 AM30 °FIce fog.6 mph100%30.10 "Hg0 mi
7:00 AM30 °FIce fog.6 mph100%30.09 "Hg0 mi
6:46 AM28 °FIce fog.7 mph100%30.08 "Hg0 mi
6:00 AM30 °FIce fog.5 mph93%30.07 "Hg4 mi
Weather by CustomWeather, © 2014

See weather overviewHow to use our weather pages